Regional Weather Roundup
Issued by NWS Newport/Morehead, NC

Current Version | Previous Version | Graphics & Text | Print | Product List | Glossary On
Versions: 1 2 3 4 5 6 7 8 9 10 11 12 13 14 15 16 17 18 19 20 21 22 23 24 25 26 27 28 29 30 31 32 33 34 35 36 37 38 39 40 41 42 43 44 45 46 47 48 49 50
000
ASUS42 KMHX 270512
RWRMHX
WEATHER ROUNDUP FOR EASTERN NORTH CAROLINA
NATIONAL WEATHER SERVICE NEWPORT/MOREHEAD CITY NC
100 AM EDT MON APR 27 2015

NOTE: "FAIR" INDICATES FEW OR NO CLOUDS BELOW 12,000 FEET
WITH NO SIGNIFICANT WEATHER AND/OR OBSTRUCTIONS TO VISIBILITY

NCZ015>017-031-032-045>047-102-103-270600-
NORTH COAST

CITY           SKY/WX    TMP DP  RH WIND       PRES   REMARKS
EDENTON        CLEAR     44  43  97 CALM      29.75S
ELIZABETH CITY CLEAR     45  41  86 SW3       29.75R
KITTY HAWK     CLEAR     51  37  59 CALM      29.73R
MANTEO         CLEAR     48  36  64 CALM      29.74R

$$

NCZ045>047-081-094-103-104-270600-
CENTRAL COAST

CITY           SKY/WX    TMP DP  RH WIND       PRES   REMARKS
FRISCO         MOCLDY    51  42  71 NE7       29.72S
SWANQUARTER      N/A     46 N/A N/A W3        29.74S

$$

NCZ095-097-098-100-101-270600-
SOUTHERN COAST

CITY           SKY/WX    TMP DP  RH WIND       PRES   REMARKS
BEAUFORT       MOCLDY    53  46  77 N7        29.76R
CEDAR ISLAND     N/A     55 N/A N/A VRB15G21  29.77F
JACKSONVILLE   CLOUDY    51  48  89 N6        29.76R
PINEY ISLAND   MOCLDY   N/A N/A N/A N9        29.75S
WILMINGTON     LGT RAIN  52  48  86 N3        29.77F


$$

NCZ011>013-027>030-043-044-078>080-089-090>093-098-270600-
COASTAL PLAIN

CITY           SKY/WX    TMP DP  RH WIND       PRES   REMARKS
AHOSKIE        PTCLDY    45  44  97 CALM      29.76S FOG
CLINTON        LGT RAIN  51  51 100 CALM      29.79R
ELIZABETHTOWN  CLOUDY    51  51  99 CALM      29.78S
GOLDSBORO      CLOUDY    50  48  93 CALM      29.76R
GREENVILLE     PTCLDY    45  45 100 CALM      29.80S FOG
HAVELOCK       CLOUDY    51  47  86 SW3       29.77R
KENANSVILLE    CLOUDY    48  48  97 CALM      29.79S
KINSTON        PTCLDY    49  48  95 CALM      29.78R
NEW BERN       MOCLDY    51  47  86 W3        29.78R
RICHLANDS      CLOUDY    50  46  87 CALM      29.77F
ROCKY MOUNT    CLEAR     46  45  96 CALM      29.77S
WASHINGTON       N/A     45  44  97 CALM      29.76F
WHITEVILLE     CLOUDY    52  49  90 CALM      29.77S

$$

AMZ130-135-150-152-154-156-158-170-250-252-270-ANZ085-086-088-633-658-670-270600-
MARINE OBSERVATIONS

STATION/POSITION TIME  TEMP    WIND        PRES    WAVE   SWELL
                       AIR SEA DIR/SP/G            HT/PER HT/PER
                 (UTC) (F)     (DEG/KT/KT) (MB)    (FT/S) (FT/S)
CHESAPEAKE LIGHT 0500   51      80/  6/  6 1007.5
64 E VA BEACH    0450   54 55  350/ 12/ 14 1005.7    5/ 7   3/ 7
DUCK             0400   53 54   30/ 10/ 11 1005.5
2 E DUCK         0411      53                N/A     4/ 6   2/11
10 NE DUCK       NOT AVBL
OREGON INLET     0400   52 55  360/  9/ 13 1006.0
HATTERAS CG      0400   56 61   10/ 16/ 18 1005.9
DIAMOND BUOY     0350   58 77   10/ 19/ 23 1005.8    7/10   5/10
CAPE LOOKOUT     0500   54     360/  9/ 11 1006.9
BEAUFORT LAB     0400          360/  5/  8   N/A
27 SE WRIGHTSVLE NOT AVBL
5 SE WRIGHTSVLE  0408   56 65   20/ 12/ 17 1007.4
225 S CAPE HAT   0450   66 71   30/ 12/ 17 1004.4    7/ 8   7/ 8
41 SE CHARLESTON 0450   65 71   30/ 19/ 23 1005.4    6/ 6

$$


USA.gov is the U.S. government's official web portal to all federal, state and local government web resources and services.